Theta_e
335 334 334 334 334 335 334 333 334 334 335 335 334 335 333 332 332 332 331 330 330 330 330 329 329 329 329 329 328 327 326 325 323 322 321 319 319 317 317 321 324 323 322 318 315 318 317 315 325 330 331 332 331 331 330 329 328 328 329 328 326 324
335 334 334 336 337 336 335 334 334 334 335 334 333 334 334 332 332 332 331 329 329 330 330 329 329 329 329 329 328 327 325 323 321 321 321 320 320 318 319 322 324 323 323 318 315 320 318 315 323 330 331 331 331 330 330 328 329 329 328 327 326 325
335 335 336 338 338 337 335 334 334 334 334 334 332 333 331 329 329 330 331 329 328 329 329 328 329 330 330 330 329 327 323 320 318 320 321 320 320 319 320 322 324 324 322 317 317 321 320 314 319 328 331 331 331 330 329 329 329 329 328 327 327 325
336 335 336 338 338 335 334 335 335 334 334 333 333 332 330 327 329 330 329 328 328 328 328 327 327 329 330 328 328 328 323 318 317 321 322 321 321 320 319 321 324 324 320 318 319 322 322 317 319 328 330 330 331 330 329 330 329 329 329 329 328 326
335 335 335 336 334 331 332 335 334 332 331 332 331 329 329 328 328 331 330 328 328 328 328 327 326 327 328 325 326 328 325 321 320 322 324 323 323 323 320 321 324 323 320 322 324 325 324 322 323 328 328 327 330 331 329 330 330 330 330 330 329 326
334 336 336 332 331 330 330 330 329 326 326 328 327 326 329 329 328 330 331 329 328 327 328 326 326 329 329 324 325 327 325 324 324 324 325 325 326 324 321 323 324 322 321 325 327 327 327 325 325 327 326 325 330 331 328 331 332 332 331 331 329 325
336 337 336 334 332 335 333 328 326 324 326 328 328 328 328 328 329 330 330 330 329 328 326 324 326 330 329 325 324 325 325 326 326 326 326 325 325 324 323 324 324 320 322 327 328 328 328 329 329 329 328 328 331 331 330 332 333 332 332 331 329 325
336 336 336 337 337 339 335 329 327 326 327 329 330 331 329 329 330 330 330 330 330 329 324 323 326 327 325 324 323 324 326 327 326 326 326 325 325 326 325 324 323 321 324 327 327 327 328 330 330 329 329 329 330 330 331 333 333 333 333 331 329 326
332 334 336 337 337 338 333 327 326 325 328 331 330 332 331 330 330 330 330 330 331 329 323 323 325 325 323 325 325 323 325 326 325 326 328 327 327 328 327 325 323 323 325 326 325 326 328 329 328 327 329 330 329 330 331 332 332 333 333 332 330 329
331 337 338 336 334 332 331 330 328 325 329 332 330 330 330 330 329 330 331 330 331 328 323 323 325 326 325 328 327 323 325 326 327 328 328 328 328 329 329 327 325 324 325 324 325 326 327 328 327 327 329 330 330 329 330 332 332 332 332 332 331 330
335 338 335 331 330 330 333 334 333 330 331 332 330 329 329 330 329 329 329 328 329 327 322 323 326 326 325 328 329 326 327 328 328 329 328 329 330 329 330 330 328 327 326 326 327 328 327 328 327 327 328 329 329 328 329 330 331 331 332 332 331 331
331 334 330 328 329 331 333 335 335 333 333 331 329 329 328 329 328 328 329 328 330 328 322 322 324 324 324 327 329 329 328 327 328 329 329 329 330 330 330 331 330 328 328 328 328 328 326 327 327 326 327 328 328 327 328 328 329 330 331 331 332 332
330 330 330 329 329 331 334 335 336 333 331 330 328 329 329 330 329 329 331 331 332 329 325 325 324 325 326 326 327 328 329 327 327 329 329 329 329 330 330 331 330 329 329 329 328 328 326 325 325 324 325 326 325 326 328 328 328 329 330 330 331 331
334 332 331 333 332 332 332 332 332 330 329 329 329 328 328 328 330 330 331 331 330 327 325 327 326 325 327 326 325 326 328 329 328 329 329 328 329 330 329 330 330 329 330 329 329 328 326 326 325 323 323 323 322 323 327 327 327 328 329 330 330 330
333 332 333 334 331 330 329 329 329 329 329 329 328 328 327 327 328 329 330 330 328 324 325 327 326 325 326 327 326 324 325 327 328 329 329 328 328 329 329 329 329 329 329 329 328 328 327 326 326 325 324 323 321 323 326 326 327 328 328 329 329 329
335 333 333 333 332 330 330 329 329 329 329 329 329 328 328 328 328 327 328 330 328 325 325 325 323 323 325 326 328 327 326 326 327 328 328 329 329 329 328 328 328 328 328 328 328 327 327 326 326 326 326 326 325 325 326 326 327 328 328 328 329 329
332 331 332 332 328 327 329 329 329 328 328 329 330 329 328 329 329 326 325 326 326 324 323 322 321 321 324 326 328 329 328 328 327 327 327 328 329 328 327 326 327 327 327 327 326 326 326 326 325 325 328 328 327 327 327 327 328 328 328 328 328 329
324 326 327 323 319 318 322 325 326 325 327 329 329 328 328 328 328 326 325 324 324 323 321 322 321 322 325 327 329 329 328 328 328 326 325 327 328 328 326 325 326 326 326 327 326 324 324 325 324 323 325 326 324 326 327 327 327 328 327 328 328 328
319 321 319 316 316 315 317 321 323 324 326 328 328 328 329 328 327 328 327 326 325 324 322 322 322 323 326 327 327 327 326 326 326 325 325 326 327 328 327 326 327 326 326 326 326 324 323 323 323 322 323 323 322 323 326 326 326 327 327 327 326 327
318 318 316 316 316 316 318 322 323 323 323 325 325 326 328 327 328 329 328 328 327 326 326 325 325 326 326 327 326 325 325 325 325 325 325 325 327 328 328 328 328 327 327 327 326 324 323 323 324 323 323 323 323 324 324 324 324 325 325 324 324 325
318 317 316 317 317 317 318 320 320 321 321 322 323 323 325 324 326 328 328 329 328 328 327 326 326 326 325 325 325 325 324 324 324 324 323 324 326 328 329 329 329 329 329 328 326 325 324 324 324 324 323 324 324 324 324 324 323 323 322 321 321 322
319 316 317 318 318 318 318 319 321 322 322 323 323 322 322 322 324 326 327 327 326 327 327 326 325 325 324 323 323 323 323 321 322 322 321 321 325 328 328 329 329 329 329 328 327 325 325 325 326 325 325 325 324 322 322 322 321 321 320 319 319 319
320 317 318 321 319 320 319 320 322 322 322 322 322 321 319 318 322 324 325 325 325 325 325 325 324 323 322 322 322 321 321 320 320 321 320 321 324 327 327 328 328 328 329 328 327 326 325 325 325 325 325 323 322 322 322 322 322 321 319 318 318 318
322 316 319 322 321 321 321 321 323 321 321 320 320 321 317 315 318 321 321 322 322 321 321 321 321 321 321 321 322 321 321 319 319 321 322 322 323 324 324 326 327 327 327 327 327 326 326 325 324 324 325 322 322 323 323 323 323 321 319 318 317 317
322 317 320 324 322 322 322 322 323 321 321 320 320 321 316 310 311 313 313 314 314 315 316 318 320 321 321 321 322 322 321 320 319 320 321 321 321 322 322 324 326 327 327 326 326 326 326 325 324 324 324 323 323 323 323 323 324 322 321 319 318 317
321 316 320 323 323 323 321 321 322 320 320 321 320 318 312 307 308 309 308 308 310 313 315 316 319 321 321 321 321 321 320 320 321 321 321 321 321 320 321 323 324 324 325 325 325 325 325 324 324 323 323 324 324 324 324 324 322 322 321 320 320 319
320 315 320 322 322 322 320 319 320 318 319 320 316 312 309 308 307 307 307 307 308 311 313 315 317 319 320 320 320 319 319 319 321 321 321 320 320 319 320 321 322 322 323 323 323 323 324 323 323 323 322 323 323 323 322 322 321 321 320 319 319 320
321 315 318 320 320 319 318 318 318 319 319 317 311 308 308 308 307 307 306 306 307 308 311 313 314 316 319 320 319 319 319 319 320 321 321 320 319 319 321 322 323 323 322 321 321 322 322 321 322 323 323 323 323 321 320 320 320 320 320 320 320 320
322 315 317 320 320 318 318 317 318 319 317 313 309 308 309 308 307 307 306 306 306 307 309 311 313 315 317 318 317 317 316 317 318 319 320 320 320 320 322 323 323 323 322 321 320 320 320 320 322 323 323 321 321 319 318 319 320 320 321 321 321 321
324 318 317 320 321 319 319 317 317 317 314 311 310 309 309 309 308 307 306 306 306 306 306 307 311 314 316 316 316 315 315 316 317 317 318 319 320 321 322 322 322 322 321 321 321 321 321 321 321 322 321 319 319 318 319 319 320 320 320 319 318 317
326 321 318 320 321 320 320 317 313 314 313 312 311 311 311 310 308 307 306 306 305 305 305 305 307 310 313 314 314 314 314 313 312 312 312 312 314 316 318 318 319 321 321 320 319 319 320 321 320 320 318 317 316 316 317 319 320 320 317 314 313 311
327 323 319 319 320 320 320 317 313 314 315 314 314 312 310 309 309 307 306 305 305 305 305 305 305 306 308 309 309 309 309 307 307 307 307 306 306 308 308 308 309 313 316 317 317 317 318 319 317 314 311 312 313 314 315 317 317 315 311 308 307 306
327 325 320 318 318 318 318 315 313 316 316 316 316 314 311 309 309 307 306 306 305 305 305 305 306 306 306 306 306 306 306 306 306 306 306 306 305 305 305 305 305 305 307 309 310 311 312 311 309 306 305 306 308 309 311 311 310 308 306 305 305 305
326 325 321 317 317 317 316 314 314 317 317 317 317 315 310 309 310 309 306 306 306 305 306 305 305 306 306 306 306 306 306 306 306 306 306 306 306 306 306 306 306 306 305 306 306 306 306 305 305 304 304 304 304 305 305 306 305 304 304 304 304 304
325 324 321 318 319 318 316 314 315 316 316 318 317 314 310 309 311 310 307 306 307 307 307 307 306 306 306 306 306 306 306 306 306 306 306 306 306 306 306 306 306 306 305 305 305 305 305 305 304 304 304 304 304 304 304 303 303 303 303 303 303 303
325 324 322 319 318 317 316 316 316 316 316 318 317 313 311 311 311 311 308 307 308 309 308 308 307 307 307 306 307 306 306 307 307 306 306 306 306 306 306 306 306 305 305 305 305 305 305 304 304 304 304 304 303 303 303 303 303 303 302 302 302 301
324 324 322 320 317 315 315 315 315 317 316 317 318 314 312 311 311 311 310 309 310 309 309 309 309 309 308 307 307 307 307 307 307 307 306 306 306 307 306 306 306 305 305 305 305 305 305 304 304 304 304 304 304 304 304 303 303 303 302 302 301 301
Wind_Speed
20 19 19 18 17 17 17 16 15 14 14 12 11 11 9 9 8 7 8 9 10 8 7 7 6 6 5 4 4 4 4 4 4 4 4 3 2 1 3 4 4 3 4 4 6 10 12 19 24 21 18 15 12 11 10 7 5 6 6 6 7 7
21 20 19 17 16 16 16 16 15 14 13 12 12 11 8 6 6 6 6 6 6 5 7 7 5 5 5 4 3 3 3 3 5 5 4 3 2 2 4 6 5 4 5 6 8 11 12 18 24 21 17 13 10 10 9 8 6 6 5 4 5 7
20 19 18 17 16 16 16 16 15 13 12 13 11 8 6 4 5 6 6 4 5 5 6 7 6 6 6 5 4 3 3 3 4 5 5 4 3 3 5 7 7 7 7 9 11 13 13 17 23 21 17 11 8 8 9 8 7 5 4 3 4 6
19 18 17 16 15 14 15 14 13 11 10 11 8 6 7 6 6 7 7 4 6 6 5 6 5 5 5 5 5 5 5 5 5 6 5 5 4 5 6 8 9 9 10 13 15 15 15 16 21 21 16 11 7 7 7 7 6 5 3 3 4 6
18 18 16 15 15 13 13 12 11 9 10 9 7 6 7 7 6 7 8 5 5 6 5 5 3 4 4 3 4 5 6 6 7 6 6 5 5 6 7 9 11 12 14 16 16 16 16 17 19 19 15 10 7 6 6 6 5 4 2 2 4 5
16 16 15 13 13 12 12 12 12 11 11 9 7 7 7 7 6 8 9 7 5 5 7 6 6 7 5 4 5 6 7 8 8 7 6 6 7 7 8 9 11 14 17 17 15 16 15 16 16 15 13 10 9 8 7 6 5 5 2 1 3 4
14 14 14 13 12 14 13 11 11 11 10 9 8 8 7 6 7 9 9 9 8 7 8 8 7 8 6 5 7 7 9 8 8 8 7 8 9 9 9 11 12 16 18 15 14 15 15 15 13 11 9 8 8 10 9 6 6 5 2 0 2 3
15 13 13 13 13 17 15 11 11 9 8 7 7 8 9 9 9 10 10 11 10 9 10 8 7 6 6 7 8 8 10 9 9 10 10 10 11 11 11 13 15 17 17 14 13 15 15 14 12 10 8 7 7 8 7 7 7 6 3 2 2 3
14 12 12 12 11 12 11 11 11 9 9 8 7 9 10 12 11 11 12 13 12 11 11 10 9 9 7 8 8 9 12 13 12 13 13 12 12 12 12 14 17 18 17 15 13 14 13 12 11 9 8 9 8 6 4 5 8 8 6 5 3 3
14 13 12 12 10 8 8 10 10 9 11 10 9 10 11 12 11 12 13 14 15 13 12 11 12 11 9 10 10 11 13 14 13 13 13 12 12 12 12 14 16 16 16 14 12 12 12 12 12 10 10 10 8 7 6 4 6 7 7 7 5 3
14 14 13 12 10 7 7 9 8 8 10 10 9 9 10 10 9 12 14 14 15 12 11 12 11 11 10 11 12 12 14 14 13 13 11 11 12 11 11 12 14 15 15 14 13 13 14 14 15 14 13 12 9 8 7 6 5 6 6 6 6 4
14 15 14 12 10 8 7 7 6 7 8 8 8 8 8 10 10 13 15 15 17 14 12 11 10 10 8 10 14 13 13 14 13 13 11 12 14 13 12 13 14 14 15 15 15 15 15 17 18 18 17 15 12 10 8 7 6 6 6 6 6 6
16 15 14 12 10 11 9 7 7 6 7 7 6 7 7 9 11 13 15 18 19 15 13 12 9 9 8 10 14 12 11 12 13 14 14 15 16 15 14 14 14 14 14 15 17 17 16 18 19 19 19 17 15 13 10 8 7 7 7 6 6 6
17 15 13 12 11 12 11 10 10 9 7 6 6 7 7 8 11 13 17 18 15 13 14 13 10 9 10 11 12 11 11 11 11 13 15 16 17 16 15 14 13 13 13 14 16 15 15 17 18 18 19 19 18 16 13 11 10 8 7 7 7 6
15 15 15 14 13 11 11 11 11 9 7 6 5 5 6 6 10 14 17 15 12 13 14 13 11 10 10 10 11 11 11 11 9 10 13 15 16 16 15 14 13 13 14 14 14 13 12 14 15 16 16 17 18 16 14 12 11 9 8 7 8 7
16 16 18 16 14 12 11 10 7 4 1 0 1 1 2 5 8 12 15 14 13 13 13 14 14 13 11 11 12 12 13 12 10 9 10 13 14 14 14 13 13 13 14 14 13 12 12 12 13 14 14 15 16 16 15 14 12 11 9 9 9 9
19 18 17 16 13 12 11 9 6 5 6 4 2 3 4 4 6 10 11 12 13 12 12 14 14 14 15 16 15 15 14 12 11 10 10 12 14 14 14 14 14 13 14 14 13 13 13 12 13 13 13 14 14 14 15 15 14 13 12 12 11 11
19 17 16 15 12 10 11 10 9 8 7 6 4 3 4 5 6 8 9 9 10 9 8 10 11 12 15 16 15 14 13 11 11 11 11 12 13 14 15 15 14 14 15 16 14 13 14 14 13 13 13 13 12 12 12 14 15 15 14 14 13 13
18 17 15 13 12 12 12 12 11 9 8 7 6 5 6 5 4 6 9 8 7 7 7 9 9 9 11 12 12 12 11 10 10 9 10 12 13 14 14 14 14 14 15 16 14 12 12 14 13 12 12 11 10 10 10 11 12 13 13 13 13 13
18 16 15 14 13 13 14 13 11 9 7 6 5 6 6 4 4 7 8 8 8 7 8 9 9 8 9 10 11 11 10 9 9 9 9 11 13 13 14 14 15 15 14 15 14 13 12 13 11 9 8 7 7 8 9 9 10 10 11 11 12 12
18 17 15 14 13 13 13 12 10 8 6 5 3 3 4 3 5 8 9 11 12 10 9 8 8 7 7 7 8 8 7 7 8 9 9 10 12 13 13 15 16 15 15 15 15 14 14 12 11 9 7 6 6 7 8 8 8 8 8 9 10 12
18 18 16 14 13 13 11 9 9 8 7 6 4 4 3 2 7 10 11 11 12 12 11 9 8 7 6 5 5 5 6 7 8 9 9 9 11 12 12 14 15 16 16 16 15 15 15 14 12 10 8 7 6 7 8 8 8 7 6 6 7 10
19 19 17 15 14 13 11 10 10 9 8 7 6 5 3 2 6 9 11 11 10 10 10 9 9 8 8 7 6 6 5 6 7 7 6 7 9 11 11 12 14 15 16 16 15 15 14 14 13 10 9 8 7 7 7 7 7 5 5 4 5 7
21 21 18 16 15 13 12 13 12 10 9 7 5 6 4 4 8 8 8 9 8 8 8 8 8 8 9 9 8 6 5 5 5 5 4 6 7 8 9 11 12 13 15 15 12 13 14 13 12 10 9 9 8 7 6 5 5 5 5 4 5 5
22 22 20 17 17 16 15 16 15 14 12 10 7 6 4 6 9 9 8 7 7 7 8 8 8 8 7 7 8 7 5 5 6 6 6 6 6 6 7 8 9 10 12 12 12 14 15 13 12 11 10 7 6 6 5 6 5 5 5 5 5 6
23 24 21 19 19 18 17 16 16 15 14 12 9 5 4 8 11 10 8 7 6 6 7 9 9 8 6 6 7 7 6 5 6 7 7 7 7 7 6 7 7 8 8 10 11 12 12 11 12 12 11 9 6 4 4 6 6 5 6 6 7 7
24 24 22 20 20 19 17 15 13 12 11 10 8 7 8 9 10 9 9 8 7 7 7 8 9 10 7 5 4 5 4 4 4 6 8 7 7 7 6 7 7 7 7 7 8 8 9 9 10 10 10 10 8 6 6 7 7 7 8 9 9 8
25 25 23 21 20 19 17 15 13 12 10 8 9 11 12 10 9 8 8 8 8 8 8 8 8 9 9 7 5 4 3 3 5 6 7 6 5 4 5 6 6 5 4 4 5 7 8 8 8 8 8 8 7 5 6 7 6 6 7 8 8 7
26 25 24 23 22 20 17 14 13 12 12 11 11 13 13 10 9 8 8 8 8 9 9 9 8 8 9 8 7 5 4 4 5 6 6 4 4 4 5 5 5 4 2 3 4 6 7 7 7 6 6 6 4 3 4 4 3 3 3 4 4 4
28 26 25 26 25 22 19 15 14 14 15 14 14 14 13 11 10 9 9 10 9 10 10 9 8 9 9 9 8 6 5 5 4 4 4 4 4 5 4 4 4 4 4 3 3 2 3 4 4 3 3 4 3 2 3 2 2 2 1 3 5 7
29 26 26 27 27 24 20 17 16 18 17 15 14 14 14 12 11 11 11 11 11 11 10 9 9 9 9 8 6 5 4 3 3 3 3 3 3 4 3 2 2 3 2 2 2 2 2 3 3 2 2 2 3 3 3 3 3 3 6 9 10 11
29 27 27 29 29 26 22 20 19 18 17 13 13 14 14 13 13 13 13 13 13 12 12 11 10 9 8 7 5 5 5 5 6 7 6 6 6 5 5 4 4 3 3 2 2 2 2 2 2 2 4 4 4 4 4 5 6 8 11 11 11 11
30 29 28 28 29 27 24 22 20 18 16 13 12 13 12 12 13 14 15 14 14 13 13 12 11 10 9 8 7 7 8 8 8 9 9 9 10 10 9 9 8 7 5 4 3 3 2 2 2 2 2 3 4 5 6 7 8 9 9 8 8 8
31 30 29 29 30 28 24 22 20 18 16 15 13 13 13 13 14 15 15 15 15 14 14 14 13 12 10 10 9 8 8 8 8 8 8 8 9 9 9 8 8 7 7 5 4 3 2 2 1 1 1 1 2 3 4 5 6 6 5 6 6 6
33 32 30 30 29 24 21 21 20 18 16 17 17 14 14 14 15 17 17 16 17 17 16 15 14 13 12 11 10 9 9 8 8 8 8 8 8 8 7 7 6 5 5 5 4 3 3 3 2 1 1 0 0 1 2 3 3 4 4 4 5 6
36 35 33 32 28 22 19 20 20 19 18 20 21 17 16 16 16 18 19 19 19 18 16 16 14 13 12 11 11 10 9 8 8 8 8 9 8 7 6 5 5 5 5 5 5 4 4 4 4 3 2 1 1 0 0 1 2 3 4 5 6 7
34 34 32 29 28 25 21 20 22 23 20 23 26 20 18 19 17 18 19 19 18 17 16 15 14 13 12 11 11 10 9 8 8 7 8 8 7 6 5 4 5 5 5 5 5 5 5 5 5 4 4 3 2 1 1 2 3 4 4 5 6 7
Wind_Direction
170 167 165 160 158 154 158 155 145 149 153 157 161 164 169 173 178 176 171 165 164 165 175 181 176 193 197 188 186 182 199 194 183 177 160 138 110 127 155 165 155 111 89 87 116 133 142 159 164 160 154 153 164 184 190 177 145 105 79 52 41 35
169 167 165 160 158 159 166 159 153 160 159 165 171 171 170 172 189 195 193 173 171 178 182 191 183 195 205 196 194 174 189 197 183 174 163 147 127 142 158 162 155 128 110 101 115 129 137 158 165 160 152 151 163 179 179 162 131 102 78 48 40 39
166 166 164 159 159 164 172 165 161 162 162 175 178 174 165 169 196 201 210 184 186 199 181 192 197 201 208 202 204 181 164 174 177 170 164 160 150 157 163 163 155 140 122 113 120 126 131 153 164 161 152 144 151 162 161 148 123 107 76 40 30 35
161 163 162 158 159 162 171 171 165 159 171 188 187 187 180 184 200 199 206 186 188 209 194 194 201 210 218 206 205 194 170 159 164 171 170 167 169 169 169 167 158 147 131 122 123 124 128 147 161 163 156 144 146 158 157 141 120 113 84 35 23 34
160 160 156 157 161 160 165 167 162 166 183 188 182 195 190 185 196 198 201 192 186 203 206 209 228 227 215 190 187 184 181 178 168 174 183 175 178 175 170 167 159 149 135 126 122 119 124 141 158 167 169 164 161 169 165 145 124 122 109 30 22 40
157 157 155 158 165 167 164 162 168 183 190 178 170 184 186 178 186 199 203 207 198 193 201 212 238 239 213 158 159 175 180 188 179 174 184 173 169 167 163 165 162 152 140 132 126 123 127 136 149 162 171 176 178 184 186 166 138 140 145 16 31 52
161 164 168 170 179 186 175 164 177 194 197 184 180 183 187 190 199 206 210 218 209 199 205 208 219 232 230 174 158 180 185 185 181 170 174 168 159 154 155 162 159 154 148 142 137 136 138 139 144 148 149 160 178 187 191 180 150 148 169 55 79 75
168 170 176 178 192 198 182 170 183 199 206 202 209 210 214 221 218 215 221 226 218 211 209 207 203 203 219 198 171 184 186 180 180 172 173 173 163 158 158 160 156 154 154 152 149 146 146 148 151 148 145 158 176 185 196 192 169 162 177 169 134 102
172 171 169 170 189 205 195 184 184 190 205 218 240 238 232 234 233 226 227 229 225 223 217 206 194 187 199 202 191 192 182 174 180 178 178 179 170 165 164 163 161 160 161 160 156 151 151 157 158 154 165 179 180 178 191 199 187 183 175 168 158 118
170 167 161 164 186 211 210 199 192 196 207 217 240 243 235 236 237 231 233 231 222 219 221 208 186 187 204 205 204 202 188 179 181 181 183 185 178 172 170 170 171 168 168 166 158 159 166 172 172 171 180 183 182 182 178 175 194 197 177 162 156 129
164 164 167 172 181 196 214 216 202 192 199 207 226 238 239 237 229 227 234 231 222 213 213 209 187 190 206 201 204 206 195 186 182 183 185 193 191 183 177 175 174 168 169 170 165 173 184 188 187 186 185 183 188 197 192 184 188 191 176 163 162 146
168 168 172 178 176 176 209 227 189 171 192 209 221 233 240 237 225 225 231 225 218 212 209 209 190 191 204 199 202 201 191 181 178 184 189 199 197 191 186 180 175 167 167 172 178 187 193 196 197 196 193 192 197 203 205 208 207 195 182 172 169 159
167 167 169 178 176 170 187 207 203 205 219 223 224 226 236 242 231 217 220 222 214 205 207 211 195 190 200 207 205 194 181 172 174 183 190 198 197 194 195 188 184 179 174 176 182 190 196 199 203 204 202 202 204 205 206 215 224 218 203 190 176 162
165 165 166 177 179 179 196 212 224 237 241 244 245 241 249 247 233 217 215 222 214 200 203 207 210 202 193 205 209 194 182 176 178 186 188 194 198 199 203 200 197 195 190 186 186 191 197 200 206 209 207 208 209 207 207 215 226 230 220 205 189 177
168 167 170 182 190 197 214 220 227 239 247 265 272 258 251 221 216 219 221 222 211 204 203 201 209 208 191 199 211 211 208 203 198 196 192 197 202 204 209 210 206 206 203 198 197 201 204 208 211 208 206 211 210 206 207 213 220 228 229 220 211 201
181 180 177 185 196 205 215 215 214 211 160 302 343 143 193 200 206 209 215 216 204 201 200 196 198 194 189 199 214 224 223 217 214 211 204 207 211 213 218 219 213 211 211 208 211 215 218 222 220 214 210 210 210 211 213 214 214 218 221 223 225 221
189 190 186 189 197 204 208 200 185 157 122 114 100 112 144 165 183 187 195 200 191 190 197 197 190 181 182 194 212 225 226 224 227 229 222 216 219 225 230 230 222 217 216 217 221 226 230 226 220 220 214 206 209 214 216 216 217 220 222 225 227 225
183 186 187 185 178 177 180 177 175 168 147 136 119 103 108 119 153 170 173 176 176 185 196 194 188 178 177 189 207 219 222 225 230 236 234 226 225 231 237 238 232 228 224 222 227 236 236 227 222 228 226 221 222 219 215 217 220 223 226 230 234 232
171 175 176 165 151 147 147 146 151 153 152 148 130 108 91 88 118 136 143 154 170 186 183 176 180 179 179 191 209 220 224 228 231 234 233 231 234 237 240 241 236 234 231 230 236 237 229 225 227 229 228 227 226 220 218 221 223 225 227 232 238 239
167 169 167 155 142 135 136 140 148 150 152 153 144 135 122 104 93 99 118 140 155 177 181 173 172 180 193 207 220 228 231 234 236 233 228 232 239 241 242 243 237 234 234 239 238 224 211 213 216 213 216 224 222 224 232 238 238 237 238 241 242 243
169 171 165 153 139 133 138 146 157 161 162 165 178 183 160 142 134 124 120 127 142 159 164 159 154 165 193 211 217 218 216 222 230 230 227 225 228 234 239 240 236 233 236 241 238 223 208 205 205 205 214 232 242 248 257 260 261 259 258 257 254 251
177 175 166 151 140 137 137 141 151 159 166 167 183 217 207 156 147 145 140 131 137 151 156 157 157 167 188 197 202 203 202 210 216 220 224 220 219 225 233 238 237 235 235 234 232 225 212 204 207 210 219 238 256 265 268 271 278 276 267 267 268 259
187 180 168 152 145 144 141 145 156 167 177 175 182 204 206 183 170 158 155 153 148 156 171 182 186 198 209 205 201 201 201 205 209 215 221 219 219 222 228 235 238 238 236 229 225 225 215 209 213 215 231 249 253 262 268 272 281 276 267 287 300 281
191 186 173 157 154 155 151 157 171 183 192 197 198 193 175 178 194 189 180 181 184 185 195 199 192 196 206 206 197 189 187 187 191 194 195 203 210 217 223 228 231 232 233 231 230 228 218 215 220 223 238 250 248 258 267 269 272 266 273 300 327 327
192 187 177 165 163 166 165 171 183 192 199 205 207 199 178 159 169 179 184 190 194 183 182 180 168 164 174 183 177 168 166 170 174 171 168 176 181 189 202 210 217 221 227 232 232 230 223 219 223 225 230 239 244 254 263 274 282 279 278 294 319 333
193 186 181 173 172 178 181 186 191 195 198 203 207 205 178 146 141 147 153 157 165 167 176 180 178 175 162 158 162 156 154 162 171 167 159 158 157 160 171 182 195 200 208 218 221 225 227 223 221 220 221 224 226 241 265 282 293 297 292 292 303 316
195 189 187 181 180 186 191 195 200 200 197 203 206 182 157 142 131 128 129 135 148 160 175 184 192 197 185 169 158 149 151 149 154 157 154 156 153 150 161 169 177 182 190 206 213 218 224 225 223 222 225 228 230 244 266 279 286 293 292 291 296 297
199 194 193 190 188 191 194 197 199 196 194 205 203 171 154 142 133 131 127 128 134 142 154 166 178 186 184 183 176 172 176 135 130 146 153 157 153 149 162 162 158 164 178 198 209 218 222 225 227 227 229 233 236 246 260 270 272 278 286 293 300 290
201 198 198 196 194 194 198 199 193 191 191 194 188 168 157 151 145 144 134 126 125 127 139 155 165 166 164 169 177 188 190 160 137 139 146 150 140 133 145 147 138 136 150 176 196 213 219 218 222 225 220 220 226 240 252 255 249 255 274 302 318 316
202 201 200 199 199 199 201 198 190 192 190 182 177 170 165 162 157 151 138 127 123 120 126 140 154 160 160 161 169 173 174 175 178 178 177 170 157 147 142 138 130 124 122 120 129 159 197 201 201 196 188 198 218 240 251 245 227 239 300 325 319 319
205 203 200 199 200 201 201 198 193 193 188 177 174 177 175 172 166 156 141 130 125 123 123 125 136 151 162 167 165 160 158 164 167 183 194 185 182 187 184 180 170 160 157 128 102 105 130 153 153 155 197 234 258 264 269 267 257 280 306 313 308 307
206 202 200 200 201 201 199 199 195 188 185 180 181 186 182 175 169 156 143 135 129 126 126 127 130 136 145 150 136 121 115 109 107 108 109 103 100 108 111 111 126 148 180 189 173 168 178 187 204 253 275 276 274 270 273 273 276 289 303 312 311 309
209 205 202 202 203 202 199 199 193 185 187 190 192 196 190 178 171 157 144 137 129 125 125 125 129 131 132 131 124 117 111 105 105 103 101 100 94 92 90 89 92 98 113 135 146 165 190 215 229 260 281 268 266 267 268 272 278 289 301 312 315 312
210 206 203 204 205 203 199 194 188 185 192 199 201 205 198 183 171 158 145 134 124 120 119 120 123 126 126 126 125 121 115 108 104 100 95 97 97 93 89 84 83 84 90 100 102 109 130 139 129 105 126 210 257 266 272 277 281 291 301 309 314 315
207 205 202 201 200 198 193 189 187 188 197 206 209 209 203 189 172 159 147 135 127 121 118 118 119 120 121 123 123 118 114 109 103 98 93 94 97 94 89 84 79 75 74 79 81 81 89 92 88 89 109 201 296 276 283 292 295 308 321 329 335 338
209 210 207 204 203 200 192 189 196 199 201 208 211 211 207 193 173 162 151 138 133 128 123 120 118 119 119 118 118 115 113 110 101 96 95 97 96 89 81 74 69 64 63 69 73 74 80 84 89 92 87 81 88 120 287 330 337 348 351 351 353 353
210 210 207 205 204 199 192 196 208 209 204 207 210 214 212 195 176 168 159 147 143 140 133 128 121 119 118 116 116 113 111 110 101 92 89 92 93 87 76 63 59 58 59 62 63 68 75 76 85 91 83 76 76 74 63 34 7 2 5 3 2 2